Weather History for Bierset, Belgium

Change the Weather History Date:

Sunday, March 24, 2013

  Actual Average Record
Temperature  
Mean Temperature 30 °F -  
Max Temperature 35 °F 54 °F 68 °F (2003)
Min Temperature 24 °F 39 °F 24 °F (2013)
Degree Days  
Heating Degree Days 36    
Moisture  
Dew Point 20 °F    
Average Humidity 68    
Maximum Humidity 93    
Minimum Humidity 34    
Precipitation  
Precipitation 0.00 in - - ()
Sea Level Pressure  
Sea Level Pressure 29.86 in    
Wind  
Wind Speed 12 mph ()    
Max Wind Speed 16 mph    
Max Gust Speed 25 mph    
Visibility 5.3 miles    
Events Snow    
Averages and records for this station are not official NWS values.
T = Trace of Precipitation, MM = Missing Value Source: Averaged Metar Reports

Daily Weather History Graph

Daily Weather History Graph

Search for Another Location

Airport:

Trip Planner

Search our weather history database for the weather conditions in past years. The results will help you decide how hot, cold, wet, or windy it might be!

Date:

Astronomy

Mar. 24, 2013 Rise Set
Actual Time 6:31 AM CET 6:57 PM CET
Civil Twilight 5:59 AM CET 7:30 PM CET
Nautical Twilight 5:20 AM CET 8:09 PM CET
Astronomical Twilight 4:39 AM CET 8:50 PM CET
Moon 3:55 PM CET (3/24) 4:50 AM CET (3/24)
Length of Visible Light 13h 31m
Length of Day
12h 25m
Waxing Gibbous, 90% of the Moon is Illuminated
Mar 24
Waxing Gibbous
Mar 27
Full
Apr 3
Last Quarter
Apr 10
New
Apr 18
First Quarter

Hourly Weather History & Observations

Time (CET) Temp. Windchill Dew Point Humidity Pressure Visibility Wind Dir Wind Speed Gust Speed Precip Events Conditions
12:20 AM 32.0 °F 22.5 °F 23.0 °F 69% 29.86 in 6.2 mi ENE 12.7 mph - N/A Snow Light Snow
12:50 AM 32.0 °F 23.0 °F 23.0 °F 69% 29.86 in 3.7 mi ENE 11.5 mph - N/A Snow Light Snow
1:00 AM 32 °F - 23 °F 59% 29.90 in 4 mi ENE 11.2 mph - - Snow Light Snow
1:20 AM 32.0 °F 22.5 °F 23.0 °F 69% 29.86 in 5.0 mi ENE 12.7 mph - N/A Snow Light Snow
1:50 AM 32.0 °F 22.5 °F 23.0 °F 69% 29.86 in 5.0 mi ENE 12.7 mph - N/A Snow Light Snow
2:20 AM 30.2 °F 19.8 °F 23.0 °F 75% 29.86 in 3.1 mi ENE 13.8 mph - N/A Snow Light Snow
2:50 AM 30.2 °F 19.8 °F 23.0 °F 75% 29.83 in 3.1 mi ENE 13.8 mph - N/A Snow Light Snow
3:20 AM 28.4 °F 18.5 °F 23.0 °F 80% 29.83 in 1.0 mi ENE 11.5 mph - N/A Snow Light Snow
3:50 AM 26.6 °F 15.2 °F 24.8 °F 93% 29.83 in 1.0 mi ENE 13.8 mph - N/A Snow Snow
4:00 AM 27 °F - 24 °F 84% 29.89 in 1 mi ENE 13.4 mph - - Snow Snow
4:20 AM 26.6 °F 14.7 °F 23.0 °F 86% 29.83 in 3.1 mi ENE 15.0 mph - N/A Snow Light Snow
4:50 AM 26.6 °F 14.7 °F 23.0 °F 86% 29.86 in 3.1 mi ENE 15.0 mph - N/A Snow Light Snow
5:20 AM 26.6 °F 15.2 °F 23.0 °F 86% 29.86 in 3.1 mi ENE 13.8 mph - N/A   Mostly Cloudy
5:50 AM 26.6 °F 15.2 °F 21.2 °F 80% 29.86 in 3.1 mi ENE 13.8 mph - N/A   Mostly Cloudy
6:20 AM 26.6 °F 15.2 °F 21.2 °F 80% 29.86 in 3.7 mi ENE 13.8 mph - N/A Snow Light Snow
6:50 AM 26.6 °F 15.7 °F 21.2 °F 80% 29.86 in 3.1 mi ENE 12.7 mph - N/A Snow Light Snow
7:00 AM 26 °F - 22 °F 77% 29.91 in 3 mi ENE 13.4 mph - - Snow Light Snow
7:20 AM 24.8 °F 12.9 °F 21.2 °F 86% 29.86 in 3.7 mi ENE 13.8 mph - N/A Snow Light Snow
7:50 AM 24.8 °F 12.4 °F 21.2 °F 86% 29.86 in 3.1 mi ENE 15.0 mph - N/A Snow Light Snow
8:20 AM 24.8 °F 12.9 °F 21.2 °F 86% 29.86 in 3.1 mi ENE 13.8 mph - N/A Snow Light Snow
8:50 AM 24.8 °F 12.9 °F 21.2 °F 86% 29.86 in 3.7 mi ENE 13.8 mph 25.3 mph N/A Snow Light Snow
9:20 AM 24.8 °F 12.9 °F 21.2 °F 86% 29.86 in 5.6 mi ENE 13.8 mph - N/A Snow Light Snow
10:00 AM 26 °F - 21 °F 76% 29.91 in 6 mi ENE 13.4 mph - - Snow Light Snow
10:20 AM 26.6 °F 15.2 °F 21.2 °F 80% 29.86 in 4.3 mi ENE 13.8 mph - N/A Snow Light Snow
10:50 AM 26.6 °F 15.2 °F 21.2 °F 80% 29.86 in 6.2 mi ENE 13.8 mph - N/A Snow Light Snow
11:20 AM 28.4 °F 18.0 °F 21.2 °F 74% 29.86 in 6.2 mi ENE 12.7 mph - N/A Snow Light Snow
11:50 AM 28.4 °F 17.5 °F 21.2 °F 74% 29.86 in 6.2 mi East 13.8 mph - N/A Snow Light Snow
12:20 PM 28.4 °F 18.0 °F 19.4 °F 69% 29.86 in 5.6 mi East 12.7 mph - N/A Snow Light Snow
12:50 PM 28.4 °F 18.5 °F 19.4 °F 69% 29.86 in 6.2 mi East 11.5 mph - N/A Snow Light Snow
1:00 PM 29 °F - 19 °F 53% 29.91 in 7 mi East 11.2 mph - - Snow Light Snow
1:20 PM 30.2 °F 20.8 °F 17.6 °F 60% 29.86 in 6.2 mi ENE 11.5 mph - N/A Snow Light Snow
1:50 PM 30.2 °F 20.8 °F 17.6 °F 60% 29.86 in 6.2 mi ENE 11.5 mph - N/A Snow Light Snow
3:20 PM 30.2 °F 20.8 °F 24.8 °F 80% 29.86 in 4.3 mi East 11.5 mph - N/A Snow Light Snow
3:50 PM 30.2 °F 19.3 °F 23.0 °F 75% 29.83 in 5.6 mi East 15.0 mph - N/A Snow Light Snow
4:20 PM 30.2 °F 20.2 °F 23.0 °F 75% 29.83 in 6.2 mi ENE 12.7 mph - N/A Snow Light Snow
4:50 PM 32.0 °F 24.2 °F 23.0 °F 69% 29.83 in 6.2 mi ENE 9.2 mph - N/A   Mostly Cloudy
5:20 PM 32.0 °F 23.0 °F 23.0 °F 69% 29.83 in 6.2 mi ENE 11.5 mph - N/A   Mostly Cloudy
5:50 PM 33.8 °F 25.8 °F 19.4 °F 56% 29.83 in 6.2 mi ENE 10.4 mph - N/A   Mostly Cloudy
6:20 PM 33.8 °F 25.8 °F 17.6 °F 52% 29.83 in 6.2 mi East 10.4 mph - N/A   Mostly Cloudy
6:50 PM 35.6 °F 27.5 °F 17.6 °F 48% 29.83 in 6.2 mi ENE 11.5 mph - N/A   Mostly Cloudy
7:00 PM 35 °F - 17 °F 34% 29.88 in 16 mi ENE 11.2 mph - -   Partly Cloudy
7:20 PM 35.6 °F 27.1 °F 15.8 °F 44% 29.83 in 6.2 mi ENE 12.7 mph - N/A   Mostly Cloudy
7:50 PM 35.6 °F 27.5 °F 14.0 °F 41% 29.86 in 6.2 mi East 11.5 mph - N/A   Mostly Cloudy
8:20 PM 33.8 °F 23.9 °F 15.8 °F 48% 29.86 in 6.2 mi ENE 15.0 mph - N/A   Mostly Cloudy
8:50 PM 33.8 °F 24.3 °F 15.8 °F 48% 29.86 in 6.2 mi ENE 13.8 mph - N/A   Mostly Cloudy
9:20 PM 32.0 °F 21.2 °F 14.0 °F 48% 29.86 in 6.2 mi ENE 16.1 mph - N/A   Mostly Cloudy
9:50 PM 32.0 °F 21.6 °F 14.0 °F 48% 29.89 in 6.2 mi ENE 15.0 mph - N/A   Mostly Cloudy
10:00 PM 32 °F - 14 °F 34% 29.92 in 16 mi ENE 13.4 mph - -   Overcast
10:20 PM 32.0 °F 22.1 °F 14.0 °F 48% 29.89 in 6.2 mi ENE 13.8 mph - N/A Snow Light Snow
10:50 PM 30.2 °F 19.3 °F 15.8 °F 55% 29.89 in 6.2 mi ENE 15.0 mph - N/A Snow Light Snow
11:20 PM 30.2 °F 19.8 °F 14.0 °F 51% 29.89 in 6.2 mi ENE 13.8 mph - N/A Snow Light Snow
11:50 PM 30.2 °F 19.3 °F 15.8 °F 55% 29.89 in 6.2 mi ENE 15.0 mph - N/A Snow Light Snow